This is the latest recevied weather packets stored in our database for station/object W0AKO. If no packets are shown the sender has not sent any weather packets the latest 10 day(s).
| Time | Temp. | Humidity | Pressure | Rain* | Wind** | Luminosity | Snow |
|---|---|---|---|---|---|---|---|
| 1777971452 | 15.56° C | 10% | 1012.2 hPa | 0 mm | - | 0 W/m² | - |
| 1777971150 | 15° C | 10% | 1012.5 hPa | 0 mm | - | 0 W/m² | - |
| 1777970847 | 15° C | 10% | 1012.2 hPa | 0 mm | - | 0 W/m² | - |
| 1777970546 | 15.56° C | 10% | 1012.3 hPa | 0 mm | - | 0 W/m² | - |
| 1777970242 | 15.56° C | 10% | 1012.5 hPa | 0 mm | - | 0 W/m² | - |
| 1777969939 | 15.56° C | 10% | 1012.3 hPa | 0 mm | - | 0 W/m² | - |
| 1777969635 | 15° C | 10% | 1012.1 hPa | 0 mm | - | 0 W/m² | - |
| 1777969333 | 15.56° C | 10% | 1012.5 hPa | 0 mm | - | 0 W/m² | - |
| 1777969028 | 15.56° C | 10% | 1012.3 hPa | 0 mm | - | 0 W/m² | - |
| 1777968726 | 16.11° C | 10% | 1012.2 hPa | 0 mm | - | 0 W/m² | - |
| 1777968423 | 16.11° C | 10% | 1012.3 hPa | 0 mm | - | 0 W/m² | - |
| 1777968118 | 16.11° C | 10% | 1012.2 hPa | 0 mm | - | 0 W/m² | - |
| 1777967814 | 16.67° C | 10% | 1012.3 hPa | 0 mm | - | 0 W/m² | - |
| 1777967511 | 16.67° C | 10% | 1012.5 hPa | 0 mm | - | 0 W/m² | - |
| 1777967208 | 16.11° C | 10% | 1012.2 hPa | 0 mm | - | 0 W/m² | - |
| 1777966905 | 16.11° C | 10% | 1012.3 hPa | 0 mm | - | 0 W/m² | - |
| 1777966603 | 15.56° C | 10% | 1012.3 hPa | 0 mm | - | 0 W/m² | - |
| 1777966301 | 15.56° C | 10% | 1012.2 hPa | 0 mm | - | 0 W/m² | - |
| 1777965996 | 15.56° C | 10% | 1012.5 hPa | 0 mm | - | 0 W/m² | - |
| 1777965694 | 15.56° C | 10% | 1012.3 hPa | 0 mm | - | 0 W/m² | - |
| 1777965389 | 16.11° C | 10% | 1012.3 hPa | 0 mm | - | 0 W/m² | - |
| 1777965087 | 16.11° C | 10% | 1012.2 hPa | 0 mm | - | 0 W/m² | - |
| 1777964784 | 16.67° C | 10% | 1012.1 hPa | 0 mm | - | 0 W/m² | - |
| 1777964480 | 16.67° C | 10% | 1012 hPa | 0 mm | - | 0 W/m² | - |
| 1777964176 | 16.67° C | 10% | 1012 hPa | 0 mm | - | 0 W/m² | - |
* Rain latest hour (hover to see other rain measurements)
** Current wind speed in m/s (hover to see current wind gust speed)